Tracking 19817 objects as of 19-Aug-2019
HD Live streaming from Space Station
objects crossing your sky now

FENGYUN 1C DEB

Track FENGYUN 1C DEB now!
10-day predictions


NORAD ID: 37926
Int'l Code: 1999-025EPB
Perigee: 816.6 km
Apogee: 905.4 km
Inclination: 98.9 °
Period: 102.0 minutes
Semi major axis: 7232 km
RCS: 0.02 m2 (small)
Launch date: May 10, 1999
Source: People's Republic of China (PRC)
Launch site: Taiyaun Space Center, China (TSC)

Note: This is SATELLITE DEBRIS
aabbcc
Your satellite tracking list
Your tracking list is empty




NASA's NSSDC Master Catalog

Two Line Element Set (TLE):
1 37926U 99025EPB 19230.67751278 +.00000470 +00000-0 +27822-3 0  9995
2 37926 098.9020 288.9954 0061372 322.3874 158.5956 14.11603954416206
Source of the keplerian elements: AFSPC